Regional Weather Roundup
Issued by NWS

Home | Current Version | Previous Version | Graphics & Text | Print | Product List | Glossary On
Versions: 1 2 3 4 5 6 7 8 9 10 11 12 13 14 15 16 17 18 19 20 21 22 23 24 25 26 27 28 29 30 31 32 33 34 35 36 37 38 39 40 41 42 43 44 45 46 47 48 49 50
000
ASUS43 KIND 181659
RWRIN

WEATHER ROUNDUP FOR INDIANA
NATIONAL WEATHER SERVICE INDIANAPOLIS IN
1200 PM EST SAT FEB 18 2017

NOTE: "FAIR" INDICATES FEW OR NO CLOUDS BELOW 12,000 FEET WITH NO
SIGNIFICANT WEATHER AND/OR OBSTRUCTIONS TO VISIBILITY.

* - STATION DOES NOT REPORT WEATHER SUCH AS PRECIPITATION OR FOG.

+ - STATION NOT QUALITY CONTROLLED BY THE NATIONAL WEATHER SERVICE.
    USE DATA WITH CAUTION...ESPECIALLY DEWPOINT AND RELATIVE
    HUMIDITY OBSERVATIONS.

INZ001>003-010>013-019-020-181800-
NORTHWEST INDIANA

CITY           SKY/WX    TMP DP  RH WIND       PRES   REMARKS
GARY /AIRPORT/ MOSUNNY   61  34  36 W9        29.74S
KNOX *+        SUNNY     59  14  17 SW8       29.74S
MICHIGAN CITY+ SUNNY     61  37  41 W6        29.74R
MONTICELLO +   SUNNY     60  40  46 SW15G21   29.77S

$$

LMZ046-743>745-181800-
SOUTHERN LAKE MICHIGAN

STATION/POSITION TIME  TEMP    WIND        PRES    WAVE
                       AIR SEA DIR/SP/G            HT
                 (UTC) (F)     (DEG/KT/KT) (MB)    (FT)
BURNS HARBOR     1640   44     300/  4/  8 1007.8S
MICHIGAN CITY    1630   41     250/  5/  8   N/A

$$

INZ004-005-014>016-021>024-181800-
NORTH CENTRAL INDIANA

CITY           SKY/WX    TMP DP  RH WIND       PRES   REMARKS
ELKHART        SUNNY     59  37  44 SW12      29.73S
GOSHEN         SUNNY     59  39  47 SW13      29.73S
SOUTH BEND     SUNNY     58  39  49 W7        29.75R
WARSAW +       SUNNY     59  36  41 SW10G16   29.74F

$$

INZ006>009-017-018-025>027-181800-
NORTHEAST INDIANA

CITY           SKY/WX    TMP DP  RH WIND       PRES   REMARKS
ANGOLA *+      SUNNY     61  52  72 SW13      29.72S
FORT WAYNE     MOSUNNY   59  40  49 W13       29.76S
KENDALLVILLE + SUNNY     60  39  45 W14       29.73S

$$

INZ028-029-035-036-043>045-051>053-181800-
WEST CENTRAL INDIANA

CITY           SKY/WX    TMP DP  RH WIND       PRES   REMARKS
LAFAYETTE      MOSUNNY   58  40  51 W10       29.79F
TERRE HAUTE    CLOUDY    59  42  53 W10       29.83F

$$

INZ030>032-037>040-046>048-054>057-064-065-181800-
CENTRAL INDIANA

CITY           SKY/WX    TMP DP  RH WIND       PRES   REMARKS
ANDERSON       SUNNY     57  39  51 SW12G17   29.82S
CP ATTERBURY + CLOUDY    59  37  44 SW10      29.85R
COLUMBUS       SUNNY     55  41  58 SW5       29.85S
FRANKFORT +    MOSUNNY   62  42  48 W15       29.82S
GREENWOOD *+   MOSUNNY   60  41  49 W7        29.83S
INDIANAPOLIS   MOSUNNY   63  40  42 W12       29.81F
-EAGLE CREEK   MOSUNNY   59  39  47 W10G17    29.80F
KOKOMO +       SUNNY     61  42  49 SW16      29.80S
MT COMFORT *+  MOSUNNY   61  39  44 W14       29.81F
SHELBYVILLE    CLOUDY    61  39  44 SW13G22   29.82F

$$

INZ033-034-041-042-049-050-058-059-181800-
EAST CENTRAL INDIANA

CITY           SKY/WX    TMP DP  RH WIND       PRES   REMARKS
MUNCIE         SUNNY     60  38  43 W12       29.80S

$$

INZ060-061-067>069-081>083-085>088-181800-
SOUTHWEST INDIANA

CITY           SKY/WX    TMP DP  RH WIND       PRES   REMARKS
EVANSVILLE     PTSUNNY   58  42  55 SW10      29.88S
HUNTINGBURG *+ CLOUDY    55  43  62 SW13      29.88S

$$

INZ062-063-066-070>080-084-089>092-181800-
SOUTH CENTRAL AND SOUTHEAST INDIANA

CITY           SKY/WX    TMP DP  RH WIND       PRES   REMARKS
BLOOMINGTON    CLOUDY    60  39  45 SW12      29.84S
MADISON *+     CLOUDY    55  36  47 S7        29.87F
SEYMOUR +      CLOUDY    61  41  48 S8        29.85F

$$





USA.gov is the U.S. government's official web portal to all federal, state and local government web resources and services.